Location: Obersdorf
(47.4079°N, 10.2781°E)
Time: 19:47:01
(UTC+02:00)

Nauka - Pass Details

Date: 30 September 2021
Orbit: 417 x 423 km, 51.6° (Epoch: 24 October)

Event Time Altitude Azimuth Distance (km) Brightness Sun altitude
Rises 21:02:46 0° 294° (WNW) 2,367 ? -21.3°
Reaches altitude 10° 21:04:53 10° 291° (WNW) 1,502 ? -21.6°
Enters shadow 21:07:44 56° 257° (WSW) 507 ? -22.0°
